FENGYUN 1C DEB, 31726

Orbit data source: Space-Track

FENGYUN 1C DEB, 31726 is space debris in SSO originally from a launch on Mon, 10 May 1999 UTC launched from the Taiyaun Space Center, China (TSC). Fengyun 1C debris stems from the Chinese weather satellite Fengyun-1C, which was intentionally destroyed by a Chinese anti-satellite missile in 2007. This event dramatically increased the amount of space debris, with thousands of trackable fragments posing hazards to satellites and human spaceflight. The Fengyun 1C debris cloud has become a focal point in discussions about space sustainability and the need for international regulations to prevent the creation of new debris.

Loading next visibility...
Identifier
31726, 1999-025CDZ
Orbit
SSO
Country
Flag of CNCN / PRC
Related business
Manufacturer
Unknown
Mission
Spacecraft
Bus & Motor
Unknown
Mass
Unknown
Launch date (UTC)
1999-05-10 (27 years ago)
Launch vehicle
Unknown
Launch site
Taiyaun Space Center, China (TSC)
Object type
Payload
Rocket body
Debris
Shape & HBR
Unknown shape, 0.1 m
Radar Cross Section
Medium (>0.1 m² and <1 m²)

Expand to show TLE details & history
Last TLE update: 2 days ago

TLE from 2 days ago
0 FENGYUN 1C DEB
1 31726U 99025CDZ 26148.30951483  .00001534  00000-0  65656-3 0  9992
2 31726  98.6841 171.2599 0231009 241.7550 182.1699 14.13068631663981
Epoch: 2026-05-28T07:25Z
TLE epoch observation values (Epoch: 2026-05-28T07:25:42.081Z)
Latitude
62.61131°
Longitude
156.92356°
Altitude
1,026.468 km
Speed
7.259 km/s
True Right ascension
10h 16m 49s
True Declination
62° 28' 32"
Sunlit
Object was in daylight at epoch
Visualization orbit readout
Latitude
Unknown
Longitude
Unknown
Altitude
Unknown
Speed
Unknown
Apparent Right ascension
Unknown
Apparent Declination
Unknown
Sunlit
N/A
Visualization observer readout
Local Sidereal Time
21:58:26
Azimuth
Unknown
Elevation
Unknown
Doppler factor
Unknown
Orbital elements
Apogee altitude
1,012.94 km
Perigee altitude
679.169 km
Semi-major axis
7,224.191 km
Eccentricity
0.0231
Inclination
98.6841°
RAAN
171.2599°
Arg. of periapsis
241.755°
True anomaly
182.07248°
Mean anomaly
182.1699°
Eccentric anomaly
182.12092°
Mean motion
3.53475 °/min
Orbital period
101.85 mins
BSTAR
0.00065656
Loading maneuver chart data...
Computing Atmospheric mass density...
Loading historical data...
Loading historical data...
Loading historical data...
Loading historical data...
Loading historical data...
Loading historical data...
Loading historical data...

Documentation

Showing up to 5 results
|